Date,TemperatureHighF,TemperatureAvgF,TemperatureLowF,DewpointHighF,DewpointAvgF,DewpointLowF,HumidityHigh,HumidityAvg,HumidityLow,PressureMaxIn,PressureMinIn,WindSpeedMaxMPH,WindSpeedAvgMPH,GustSpeedMaxMPH,PrecipitationSumIn
2013-1-1,29.3,19.6,1.9,26.5,12.6,-4.4,90,74,59,29.90,29.63,11,3,0,0.00
2013-1-2,20.8,5.2,-7.4,12.7,-2.1,-14.8,81,71,60,30.13,29.84,6,2,0,0.00
2013-1-3,13.6,0.3,-10.1,-2.0,-9.4,-16.9,76,64,45,30.14,29.93,4,1,0,0.00
2013-1-4,33.8,20.6,-4.4,24.2,14.5,-10.0,91,77,62,29.92,29.75,7,2,0,0.00
2013-1-5,34.3,25.2,10.6,24.5,16.6,6.2,87,70,50,30.20,29.76,8,2,0,0.00
2013-1-6,33.6,23.6,10.0,27.2,19.4,5.9,92,84,74,30.16,29.88,3,1,0,0.00
2013-1-7,32.0,22.2,4.8,28.9,15.5,0.3,91,76,55,30.35,29.92,4,1,0,0.00
2013-1-8,41.2,20.8,2.1,24.6,12.6,-2.7,86,72,48,30.35,30.20,6,1,0,0.03
2013-1-9,40.1,26.6,10.0,31.0,20.3,5.9,88,77,63,30.36,29.92,7,1,0,0.02
2013-1-10,41.4,33.3,25.0,30.8,24.3,20.3,89,70,56,30.52,29.97,8,3,0,0.02
2013-1-11,36.1,27.9,17.8,30.0,22.6,15.1,94,81,61,30.50,30.13,5,2,0,0.04
2013-1-12,40.5,34.8,31.3,38.9,33.5,29.8,97,95,93,30.14,30.07,5,1,0,0.08
2013-1-13,42.6,38.0,32.9,41.8,37.3,32.1,98,97,95,30.11,29.93,3,1,0,0.00
2013-1-14,50.4,39.7,30.7,49.9,35.1,23.7,98,85,53,30.23,29.81,6,2,0,0.01
2013-1-15,34.7,29.2,25.0,27.0,22.8,19.7,90,77,63,30.29,30.19,3,1,0,0.00
2013-1-16,30.6,27.3,25.0,27.5,24.6,21.8,94,89,80,30.19,29.74,3,0,0,0.00
2013-1-17,36.3,24.6,11.7,30.5,18.2,0.9,94,77,57,30.06,29.74,7,1,0,0.00
2013-1-18,17.8,8.8,-3.3,2.1,-4.1,-11.2,76,56,38,30.31,30.03,7,1,0,0.00
2013-1-19,39.9,25.3,9.7,24.7,16.4,3.7,81,69,51,30.20,29.74,4,1,0,0.05
2013-1-20,42.3,29.7,16.3,33.5,19.1,-0.8,88,66,44,29.83,29.43,14,4,0,0.05
2013-1-21,25.3,16.8,7.2,13.1,3.7,-4.9,84,58,39,29.95,29.71,7,2,0,0.00
2013-1-22,20.8,11.2,-2.4,12.1,2.8,-10.8,85,69,43,29.95,29.68,7,1,0,0.00
2013-1-23,5.7,-2.6,-15.2,-8.8,-15.5,-22.9,71,54,36,30.03,29.93,7,2,0,0.00
2013-1-24,9.7,-2.7,-17.3,-11.4,-17.1,-24.9,68,51,33,30.16,29.98,9,3,0,0.00
2013-1-25,15.1,5.5,-5.6,-0.4,-9.1,-14.6,68,51,30,30.22,29.96,6,1,0,0.00
2013-1-26,18.3,7.9,0.7,0.1,-4.3,-10.0,75,58,35,30.13,29.92,6,2,0,0.00
2013-1-27,23.5,10.4,0.7,-0.4,-5.2,-9.6,76,52,25,30.40,30.13,8,2,0,0.00
2013-1-28,21.6,11.8,-0.9,15.9,4.6,-8.9,86,73,46,30.39,29.96,3,0,0,0.00
2013-1-29,33.4,25.2,17.8,28.5,21.3,14.3,94,85,73,30.14,29.98,0,0,0,0.00
2013-1-30,49.1,38.5,30.2,48.6,37.6,28.7,98,96,94,30.05,29.35,4,1,0,0.79
2013-1-31,55.6,38.0,23.5,55.0,30.4,8.4,98,76,51,29.46,28.83,10,4,0,1.01
2013-2-1,25.2,18.9,11.8,15.9,9.1,2.1,82,66,51,29.99,29.46,8,3,0,0.00
2013-2-2,21.0,15.3,6.1,12.7,6.5,0.5,84,69,51,30.11,29.95,4,1,0,0.00
2013-2-3,26.1,18.9,8.8,13.5,10.8,4.7,84,71,55,29.96,29.65,6,1,0,0.00
2013-2-4,25.2,17.5,10.2,10.6,4.1,-4.6,78,57,34,29.82,29.63,9,3,0,0.00
2013-2-5,24.4,14.5,1.0,9.1,1.8,-5.0,76,58,38,29.94,29.81,7,1,0,0.00
2013-2-6,32.0,21.8,10.6,21.4,11.7,-4.7,86,66,45,30.24,29.83,6,2,0,0.00
2013-2-7,21.2,13.7,4.3,1.7,-3.5,-7.5,60,46,32,30.47,30.24,5,1,0,0.00
2013-2-8,17.6,15.3,12.6,12.4,7.6,-4.1,87,73,38,30.40,29.76,13,4,0,0.00
2013-2-9,17.6,11.4,3.9,12.8,6.7,-0.3,87,81,70,30.19,29.72,5,1,0,0.07
2013-2-10,29.5,12.5,-5.3,24.5,3.8,-10.6,88,70,31,30.36,30.19,3,1,0,0.00
2013-2-11,29.7,20.8,3.4,28.4,17.0,-1.9,95,85,67,30.26,29.55,5,1,0,0.00
2013-2-12,42.1,33.9,29.1,30.5,27.4,24.2,95,77,60,29.80,29.56,10,3,0,0.19
2013-2-13,39.0,29.2,21.9,25.9,19.8,16.7,81,68,50,29.80,29.69,5,1,0,0.02
2013-2-14,37.2,26.9,20.7,25.9,18.9,16.4,84,73,51,29.92,29.67,5,1,0,0.01
2013-2-15,47.1,32.0,17.4,31.0,22.4,13.4,87,69,47,29.91,29.83,10,2,0,0.05
2013-2-16,33.6,27.6,18.3,25.9,18.1,3.7,89,68,52,29.90,29.71,5,1,0,0.00
2013-2-17,18.1,13.4,8.1,4.1,0.9,-2.9,65,57,48,29.70,29.40,12,4,0,0.00
2013-2-18,24.3,15.5,5.4,1.9,-4.0,-8.9,65,44,24,30.05,29.62,9,4,0,0.00
2013-2-19,39.9,25.6,7.0,30.2,13.1,-4.1,93,61,31,30.09,29.52,8,2,0,0.04
2013-2-20,32.0,24.8,18.1,30.5,19.3,11.8,94,79,70,29.68,29.48,6,2,0,0.00
2013-2-21,26.2,18.7,13.3,15.2,10.7,5.9,84,71,55,30.22,29.68,8,3,0,0.00
2013-2-22,39.7,28.4,15.8,24.0,18.2,12.4,86,66,49,30.36,30.23,5,2,0,0.08
2013-2-23,33.3,29.2,26.6,28.6,24.4,18.2,93,82,69,30.23,29.87,5,2,0,0.00
2013-2-24,35.8,31.3,27.1,31.4,28.8,25.1,94,91,81,29.87,29.69,5,1,0,0.07
2013-2-25,36.0,30.3,25.3,31.0,27.2,23.3,94,88,79,30.19,29.86,3,1,0,0.03
2013-2-26,38.8,32.7,26.2,33.2,28.7,24.5,93,85,73,30.29,30.13,6,2,0,0.10
2013-2-27,33.6,31.1,28.8,31.8,28.6,25.2,94,91,80,30.13,29.60,16,6,0,0.04
2013-2-28,43.3,34.5,27.3,37.2,31.4,25.8,94,89,74,29.60,29.51,3,1,0,0.22
2013-3-1,39.2,32.0,28.2,31.6,27.2,24.3,94,83,65,29.66,29.51,6,2,0,0.00
2013-3-2,36.7,29.8,23.9,28.0,24.3,20.3,87,80,64,29.63,29.58,5,2,0,0.00
2013-3-3,35.4,27.9,22.1,26.6,22.3,18.8,87,80,69,29.61,29.53,5,2,0,0.03
2013-3-4,32.9,26.4,23.2,23.5,20.3,18.0,83,78,66,29.77,29.57,8,2,0,0.00
2013-3-5,47.3,31.1,23.4,31.0,24.0,18.3,90,76,53,30.04,29.77,4,1,0,0.00
2013-3-6,33.8,31.3,28.2,29.7,27.1,23.2,93,85,73,30.16,30.04,11,5,0,0.00
2013-3-7,38.8,31.2,27.1,26.5,24.0,21.6,88,75,61,30.13,30.04,11,3,0,0.01
2013-3-8,39.7,30.9,25.7,26.0,23.5,19.4,90,75,55,30.18,29.99,5,2,0,0.09
2013-3-9,53.2,36.2,23.9,28.4,19.5,9.1,81,56,18,30.29,30.16,4,1,0,0.03
2013-3-10,50.2,34.8,17.6,29.3,23.8,14.4,89,67,39,30.33,30.18,7,2,0,0.00
2013-3-11,47.3,38.7,31.3,36.2,29.9,27.6,87,72,49,30.23,30.06,7,2,0,0.00
2013-3-12,47.3,42.3,38.8,46.8,41.0,36.1,98,95,86,30.06,29.66,9,2,0,0.99
2013-3-13,43.0,36.9,26.4,38.0,29.9,23.1,94,77,55,29.76,29.69,6,2,0,0.00
2013-3-14,31.5,25.3,14.9,24.3,14.9,5.0,86,65,49,29.79,29.64,9,3,0,0.00
2013-3-15,36.0,23.3,10.6,26.5,11.6,1.7,89,62,34,29.80,29.53,9,3,0,0.00
2013-3-16,32.2,25.0,16.3,18.2,13.2,10.1,82,62,44,29.82,29.62,5,2,0,0.00
2013-3-17,30.7,21.3,12.7,12.7,7.0,-1.2,78,55,35,30.26,29.82,8,2,0,0.00
2013-3-18,35.2,21.3,2.1,18.4,0.3,-8.3,75,44,15,30.39,30.16,6,2,0,0.00
2013-3-19,30.2,25.7,22.1,26.2,22.6,19.4,91,88,79,30.15,29.67,13,4,0,0.00
2013-3-20,37.6,26.8,19.4,24.2,19.3,13.4,90,74,55,29.70,29.61,8,2,0,0.01
2013-3-21,41.9,24.8,5.7,23.5,11.3,1.7,85,60,32,29.71,29.54,5,1,0,0.09
2013-3-22,41.2,26.8,11.3,21.8,16.0,6.9,84,65,42,29.67,29.57,7,2,0,0.01
2013-3-23,39.7,29.7,21.0,22.3,18.7,14.8,81,64,41,29.73,29.59,10,3,0,0.00
2013-3-24,42.1,32.0,24.1,25.8,21.9,18.0,78,67,50,29.80,29.72,6,2,0,0.00
2013-3-25,40.6,30.5,18.0,28.1,21.7,14.5,87,71,50,29.76,29.52,10,2,0,0.00
2013-3-26,47.1,36.5,26.1,28.3,23.4,19.6,88,61,37,29.76,29.55,5,2,0,0.00
2013-3-27,49.6,35.5,19.6,30.4,24.7,16.4,90,67,42,29.87,29.74,5,1,0,0.00
2013-3-28,48.0,37.3,31.5,36.2,31.2,27.9,93,79,57,30.01,29.86,5,1,0,0.01
2013-3-29,47.3,38.7,30.9,37.5,31.6,27.7,90,76,57,30.03,29.97,4,1,0,0.02
2013-3-30,53.8,37.9,25.5,32.2,22.3,11.6,91,60,21,30.07,29.99,5,1,0,0.00
2013-3-31,53.4,38.1,19.8,35.3,22.8,15.9,92,60,26,30.08,29.73,8,2,0,0.05
2013-4-1,52.3,36.5,26.6,44.0,30.0,10.5,94,79,47,29.72,29.46,10,3,0,0.65
2013-4-2,32.5,27.0,21.7,17.6,10.3,6.5,58,49,39,29.83,29.71,8,3,0,0.01
2013-4-3,40.6,30.0,20.7,13.2,8.7,1.4,59,43,20,30.10,29.82,9,3,0,0.00
2013-4-4,50.4,36.2,21.9,21.4,13.0,6.0,70,42,18,30.23,29.93,7,2,0,0.00
2013-4-5,53.8,40.2,29.5,26.9,22.9,17.0,76,53,27,29.92,29.66,7,3,0,0.00
2013-4-6,39.6,29.5,20.7,18.3,7.0,-2.2,63,41,18,30.28,29.87,8,3,0,0.00
2013-4-7,55.0,40.2,22.5,35.6,21.8,9.3,77,50,27,30.26,29.89,10,3,0,0.00
2013-4-8,57.9,45.4,36.9,36.8,33.1,28.6,91,65,35,30.07,29.91,5,2,0,0.00
2013-4-9,58.1,46.5,40.3,46.4,40.0,32.8,94,80,55,30.02,29.86,7,2,0,0.11
2013-4-10,54.1,45.2,40.1,46.6,42.1,37.3,96,89,73,29.97,29.86,3,1,0,0.69
2013-4-11,42.6,39.2,35.1,39.9,30.0,20.4,95,71,49,30.13,29.86,4,1,0,0.04
2013-4-12,34.7,30.3,27.5,28.3,25.1,20.2,92,81,56,30.15,29.80,12,4,0,0.05
2013-4-13,52.0,38.9,30.0,36.6,32.4,28.2,94,79,49,29.85,29.70,5,1,0,0.32
2013-4-14,51.6,39.3,31.8,36.1,31.2,26.9,94,75,48,30.15,29.83,7,2,0,0.00
2013-4-15,57.7,42.3,24.3,35.1,30.1,21.9,92,65,39,30.29,30.15,6,2,0,0.00
2013-4-16,63.3,49.0,36.0,51.2,41.3,30.0,97,76,53,30.29,29.93,11,4,0,0.05
2013-4-17,59.7,48.6,34.0,51.0,34.2,27.5,97,61,33,30.29,29.96,11,2,0,0.00
2013-4-18,60.8,46.5,27.1,39.2,30.7,24.3,91,57,41,30.36,30.04,9,3,0,0.00
2013-4-19,72.1,60.8,50.2,60.3,54.6,40.0,94,81,62,30.04,29.50,13,4,0,0.18
2013-4-20,57.4,44.2,33.6,55.4,32.9,18.8,93,67,40,30.17,29.56,9,3,0,0.20
2013-4-21,49.1,37.5,26.6,21.6,17.3,10.4,75,46,22,30.62,30.17,7,2,0,0.00
2013-4-22,52.3,37.8,23.9,27.8,20.5,13.5,85,54,27,30.69,30.53,12,4,0,0.00
2013-4-23,37.8,34.5,28.4,35.4,30.4,25.0,91,85,79,30.54,30.11,10,3,0,0.00
2013-4-24,73.8,55.9,37.9,48.2,40.6,23.8,94,63,17,30.10,29.68,7,2,0,0.00
2013-4-25,57.4,49.3,32.7,49.5,32.7,21.3,87,56,28,30.24,29.68,7,3,0,0.00
2013-4-26,58.6,43.5,26.4,37.2,30.4,23.3,89,63,35,30.37,30.24,9,2,0,0.00
2013-4-27,64.6,48.4,28.8,40.6,28.4,14.7,91,54,15,30.38,30.22,5,1,0,0.00
2013-4-28,70.5,52.6,29.7,39.9,33.3,26.3,90,54,25,30.27,30.13,11,2,0,0.00
2013-4-29,70.7,56.4,40.3,42.0,38.1,34.6,82,53,31,30.20,30.11,6,2,0,0.00
2013-4-30,74.7,59.5,49.3,36.7,31.0,25.7,58,35,20,30.30,30.18,6,2,0,0.00
2013-5-1,77.2,58.3,35.6,37.9,28.3,14.2,84,40,10,30.42,30.30,11,2,0,0.00
2013-5-2,84.9,58.1,37.4,45.4,36.1,26.3,88,51,17,30.45,30.27,10,2,0,0.00
2013-5-3,66.2,52.4,33.6,43.3,37.3,29.1,86,59,37,30.49,30.32,8,2,0,0.00
2013-5-4,71.2,55.4,36.5,47.4,35.7,23.5,92,55,18,30.33,30.18,10,3,0,0.00
2013-5-5,73.8,54.4,32.7,38.3,32.5,25.8,87,50,20,30.27,30.14,9,2,0,0.00
2013-5-6,78.6,57.5,34.3,45.3,32.7,22.4,89,49,14,30.20,30.05,6,2,0,0.00
2013-5-7,83.7,63.1,39.9,52.4,39.2,25.2,90,51,14,30.14,29.99,10,2,0,0.00
2013-5-8,72.7,60.6,48.0,62.0,55.1,45.5,95,83,53,30.18,30.01,10,2,0,0.26
2013-5-9,68.2,60.1,53.6,59.8,56.7,52.8,98,89,68,30.01,29.83,6,1,0,0.95
2013-5-10,76.6,61.8,50.2,62.5,55.3,49.7,98,82,47,29.92,29.84,6,1,0,0.01
2013-5-11,64.2,60.1,57.2,62.0,58.5,55.3,98,94,86,29.83,29.63,5,1,0,0.21
2013-5-12,64.8,54.6,41.2,57.3,43.9,26.9,98,70,42,29.72,29.54,5,1,0,0.01
2013-5-13,52.5,43.0,38.3,32.7,29.2,26.5,76,59,43,29.99,29.73,5,2,0,0.00
2013-5-14,56.1,44.5,33.1,35.5,30.7,26.4,90,62,34,30.02,29.91,5,1,0,0.00
2013-5-15,63.3,45.4,28.6,51.2,36.8,25.7,97,76,31,29.99,29.59,7,1,0,0.16
2013-5-16,77.4,59.9,43.3,50.9,41.8,32.2,98,60,21,29.81,29.56,9,2,0,0.00
2013-5-17,66.9,53.2,44.1,43.2,39.5,36.5,81,62,33,30.18,29.82,4,1,0,0.00
2013-5-18,73.8,55.6,35.2,45.5,37.8,25.8,92,59,20,30.27,30.16,4,1,0,0.00
2013-5-19,69.3,53.7,41.4,53.3,48.1,39.0,97,83,53,30.29,30.14,4,1,0,0.25
2013-5-20,76.8,62.2,53.1,63.5,58.0,52.3,98,87,63,30.13,29.92,3,0,0,0.02
2013-5-21,81.0,60.5,49.8,68.4,57.3,48.9,98,90,60,30.03,29.84,7,2,0,0.53
2013-5-22,68.5,55.7,49.3,63.1,54.4,48.5,98,95,83,29.92,29.83,5,2,0,0.66
2013-5-23,73.0,61.7,51.6,69.3,60.0,51.1,98,94,82,29.85,29.71,6,1,0,0.03
2013-5-24,63.7,55.1,43.7,63.1,53.6,42.6,98,95,88,29.85,29.60,4,1,0,0.26
2013-5-25,43.7,40.5,33.3,43.2,39.7,32.3,98,97,94,29.84,29.72,5,3,0,0.63
2013-5-26,54.5,42.3,33.3,44.0,38.3,32.5,98,86,63,30.02,29.69,5,2,0,0.10
2013-5-27,69.4,50.6,32.9,44.4,37.5,31.6,97,66,29,30.15,30.01,6,1,0,0.00
2013-5-28,74.5,55.6,35.2,46.4,40.9,33.4,95,63,32,30.21,30.09,5,1,0,0.00
2013-5-29,59.2,55.3,51.1,58.3,53.1,44.8,98,93,72,30.12,29.95,3,0,0,0.33
2013-5-30,85.5,69.8,56.3,67.9,62.2,55.7,98,80,50,30.06,29.98,4,1,0,0.00
2013-5-31,92.1,73.9,57.2,70.2,62.5,56.6,98,72,37,30.09,29.93,6,1,0,0.00
2013-6-1,93.7,75.9,62.1,69.2,64.2,60.2,98,71,39,29.96,29.83,5,1,0,0.00
2013-6-2,91.9,71.7,64.6,71.5,66.6,63.2,98,86,51,29.84,29.65,5,1,0,1.59
2013-6-3,75.4,64.9,53.6,64.6,58.2,47.6,98,81,51,29.80,29.75,4,1,0,0.00
2013-6-4,67.6,55.8,46.9,48.2,44.3,39.7,81,66,48,30.06,29.79,6,1,0,0.00
2013-6-5,75.4,58.5,43.2,47.8,44.1,35.2,94,63,28,30.16,30.04,4,1,0,0.00
2013-6-6,71.6,59.5,47.7,54.9,47.4,40.8,89,66,44,30.17,30.06,6,1,0,0.00
2013-6-7,51.3,50.1,49.3,49.6,48.9,48.2,97,96,94,30.02,29.93,6,2,0,0.06
2013-6-8,69.3,62.1,54.0,60.3,58.1,53.4,98,87,73,29.98,29.68,2,0,0,0.00
2013-6-9,74.1,62.7,52.9,59.0,55.0,51.8,98,78,53,30.16,29.98,5,1,0,0.00
2013-6-10,70.9,58.9,47.1,59.7,54.5,46.0,98,87,59,30.18,29.97,4,1,0,0.19
2013-6-11,56.3,54.1,52.0,55.2,53.5,51.5,98,98,94,29.97,29.54,5,1,0,0.95
2013-6-12,59.2,54.9,50.9,57.1,53.8,50.1,98,96,91,29.80,29.53,4,1,0,0.08
2013-6-13,64.6,54.9,46.2,58.4,52.3,45.7,98,92,64,29.79,29.68,3,0,0,0.21
2013-6-14,81.0,62.0,52.0,60.8,53.6,46.7,98,78,38,29.79,29.64,3,1,0,0.00
2013-6-15,78.4,62.5,48.9,52.1,47.8,42.6,89,62,28,29.92,29.79,4,1,0,0.00
2013-6-16,72.3,58.5,46.2,59.5,53.6,44.6,98,85,58,29.91,29.69,5,0,0,0.03
2013-6-17,81.9,63.1,52.5,64.3,58.5,52.0,98,87,49,29.89,29.76,4,1,0,0.06
2013-6-18,59.5,55.1,50.5,58.1,54.3,50.0,98,97,95,29.94,29.87,2,0,0,0.00
2013-6-19,80.2,59.0,45.9,53.6,48.0,44.2,98,72,31,30.16,29.94,0,0,0,0.00
2013-6-20,79.9,60.3,41.5,52.8,46.2,39.9,96,65,28,30.26,30.16,0,0,0,0.00
2013-6-21,85.5,62.2,48.2,59.4,52.8,46.4,96,74,36,30.25,30.21,0,0,0,0.00
2013-6-22,84.4,68.0,53.1,67.6,60.9,51.7,97,80,54,30.22,30.10,2,0,0,0.03
2013-6-23,88.0,70.7,62.2,74.6,67.2,61.6,98,90,62,30.14,29.96,3,0,0,0.12
2013-6-24,93.6,74.4,65.3,73.0,67.9,63.6,98,83,49,29.99,29.88,5,1,0,0.00
2013-6-25,90.1,73.3,64.8,72.3,67.3,64.2,98,84,52,29.93,29.72,4,1,0,0.11
2013-6-26,74.5,66.8,62.4,72.9,66.1,61.8,98,98,91,29.84,29.72,2,0,0,0.40
2013-6-27,77.9,67.7,63.3,71.6,66.0,62.7,98,94,77,29.83,29.74,4,1,0,0.00
2013-6-28,71.8,62.7,56.3,69.7,61.9,55.7,98,97,90,29.74,29.47,6,2,0,1.35
2013-6-29,82.4,70.9,63.5,71.7,65.9,62.9,98,86,59,29.68,29.50,5,1,0,0.03
2013-6-30,82.4,69.8,63.3,70.8,66.0,62.7,98,89,65,29.92,29.68,5,1,0,0.78
2013-7-1,76.6,69.8,65.1,72.3,68.5,64.5,98,96,81,30.05,29.92,3,0,0,0.14
2013-7-2,78.1,68.7,61.2,75.9,67.9,60.6,98,97,87,30.19,30.04,6,1,0,1.48
2013-7-3,85.8,72.0,60.8,75.9,68.2,60.2,98,89,64,30.19,30.11,3,1,0,0.10
2013-7-4,89.4,77.3,66.0,76.8,71.2,65.4,98,83,57,30.21,30.08,4,1,0,0.01
2013-7-5,91.9,78.1,68.7,76.7,72.2,68.1,98,84,55,30.17,30.05,4,1,0,0.00
2013-7-6,86.5,74.6,68.5,73.2,69.6,66.4,98,86,57,30.10,30.01,3,0,0,0.01
2013-7-7,88.2,74.5,64.2,74.5,69.1,63.6,98,85,54,30.05,29.93,4,0,0,0.01
2013-7-8,84.7,72.1,66.6,74.9,70.1,66.0,98,94,70,30.06,29.92,3,0,0,0.32
2013-7-9,79.5,69.1,64.0,71.3,67.0,63.4,98,93,76,30.11,30.03,5,1,0,0.00
2013-7-10,76.5,68.9,65.1,74.2,68.1,64.5,98,97,90,30.05,29.78,5,1,0,0.23
2013-7-11,81.5,71.7,62.2,74.0,67.5,60.7,98,88,65,29.98,29.75,3,1,0,0.00
2013-7-12,82.2,68.6,57.7,64.5,61.0,57.1,98,79,50,30.22,29.98,5,1,0,0.00
2013-7-13,77.7,67.8,57.4,70.4,64.3,56.8,98,90,64,30.33,30.23,4,0,0,0.00
2013-7-14,86.4,74.3,64.8,74.3,69.6,64.2,98,87,63,30.33,30.22,3,0,0,0.00
2013-7-15,93.7,75.6,64.6,74.9,68.5,64.0,98,81,47,30.24,30.13,3,1,0,0.00
2013-7-16,90.0,75.5,63.3,72.9,68.5,62.7,98,81,54,30.20,30.15,3,1,0,0.00
2013-7-17,95.7,78.0,63.0,73.6,69.2,62.4,98,77,45,30.20,29.98,4,1,0,0.00
2013-7-18,93.7,76.8,68.9,75.2,71.6,68.3,98,86,51,30.03,29.94,6,1,0,0.52
2013-7-19,91.8,78.2,67.1,78.5,72.0,66.5,98,83,55,29.94,29.69,7,2,0,0.13
2013-7-20,85.1,73.2,65.5,72.5,68.0,64.7,98,85,60,29.80,29.65,8,1,0,0.05
2013-7-21,82.9,69.5,59.9,66.1,63.0,59.3,98,82,54,30.00,29.81,4,0,0,0.00
2013-7-22,73.8,65.9,59.0,69.7,64.4,58.4,98,95,86,30.03,29.89,4,1,0,0.20
2013-7-23,72.1,65.5,61.9,71.1,64.8,61.3,98,98,94,29.88,29.55,3,0,0,1.45
2013-7-24,74.3,64.7,52.9,71.3,60.9,48.5,98,88,71,30.00,29.59,4,1,0,0.00
2013-7-25,71.4,59.3,46.8,60.3,53.7,45.7,98,82,58,30.11,30.00,4,1,0,0.00
2013-7-26,73.2,63.2,59.2,66.3,61.1,58.6,98,93,77,30.08,29.98,3,1,0,0.07
2013-7-27,82.9,67.3,53.1,64.6,59.7,52.5,98,79,46,30.06,29.96,4,1,0,0.00
2013-7-28,78.8,67.7,57.9,68.6,63.4,57.3,98,88,57,30.02,29.94,6,1,0,0.12
2013-7-29,82.2,69.3,60.1,72.5,65.0,59.0,98,87,59,30.06,29.96,3,1,0,0.06
2013-7-30,77.9,65.4,54.0,61.7,58.0,53.4,98,79,49,30.11,30.04,4,1,0,0.00
2013-7-31,82.6,66.5,53.6,64.6,59.9,53.0,98,82,44,30.15,30.02,4,0,0,0.00
2013-8-1,76.3,63.5,53.6,65.5,60.8,53.0,98,92,65,30.04,29.84,5,1,0,0.42
2013-8-2,81.0,68.1,58.6,68.8,61.2,57.0,98,81,46,29.85,29.77,4,1,0,0.01
2013-8-3,79.5,64.9,55.6,63.3,57.7,53.9,98,80,52,29.85,29.77,5,1,0,0.06
2013-8-4,72.3,61.5,52.3,62.8,56.3,51.8,98,84,65,29.90,29.79,4,1,0,0.01
2013-8-5,72.5,59.3,50.0,52.7,48.4,37.7,95,71,29,30.05,29.90,4,1,0,0.00
2013-8-6,77.4,60.3,44.2,55.6,50.8,43.3,98,74,44,30.14,30.05,4,1,0,0.00
2013-8-7,77.2,64.3,52.2,62.6,57.1,51.4,98,79,55,30.18,30.07,5,1,0,0.00
2013-8-8,81.5,71.0,63.1,70.3,66.7,61.1,98,87,66,30.07,29.97,5,1,0,0.00
2013-8-9,71.8,69.2,64.8,71.2,68.6,64.2,98,98,98,29.99,29.75,3,0,0,0.77
2013-8-10,77.5,66.8,55.9,64.7,59.5,51.8,98,79,50,30.03,29.79,4,1,0,0.00
2013-8-11,76.3,61.0,47.3,57.9,53.5,46.8,98,79,50,30.08,29.98,3,1,0,0.00
2013-8-12,78.8,64.3,51.6,61.2,57.2,51.1,98,80,52,30.02,29.91,3,1,0,0.00
2013-8-13,67.8,61.8,55.9,67.2,61.2,55.3,98,98,97,29.91,29.68,2,0,0,0.60
2013-8-14,70.9,60.4,52.3,63.4,55.3,50.0,98,84,61,29.95,29.67,5,2,0,0.00
2013-8-15,73.9,58.1,45.9,55.8,51.7,45.4,98,81,53,30.11,29.95,5,1,0,0.00
2013-8-16,76.8,60.4,46.6,59.0,53.9,46.1,98,81,49,30.19,30.10,4,0,0,0.00
2013-8-17,79.9,62.7,49.5,62.0,56.4,49.0,98,82,51,30.29,30.20,3,0,0,0.00
2013-8-18,77.5,63.7,51.6,64.4,58.5,51.1,98,85,58,30.29,30.08,4,0,0,0.00
2013-8-19,82.6,65.8,52.7,63.1,59.2,52.2,98,82,50,30.08,29.95,3,0,0,0.00
2013-8-20,84.6,67.6,54.5,65.2,60.5,53.9,98,81,46,30.10,30.00,3,1,0,0.00
2013-8-21,88.2,69.4,56.1,67.6,62.4,55.5,98,81,50,30.16,30.01,4,0,0,0.00
2013-8-22,86.9,71.1,58.5,67.9,63.8,57.9,98,81,48,30.02,29.80,4,1,0,0.35
2013-8-23,77.5,64.2,53.6,65.2,58.4,50.6,98,83,52,30.16,29.83,3,1,0,0.00
2013-8-24,79.2,59.2,44.2,55.3,50.5,43.4,98,77,38,30.34,30.16,3,1,0,0.00
2013-8-25,80.8,61.5,45.3,61.1,53.9,44.4,98,79,49,30.39,30.15,4,1,0,0.00
2013-8-26,75.7,67.2,59.4,69.0,64.3,58.2,98,91,75,30.17,29.87,4,1,0,0.15
2013-8-27,82.6,70.5,62.6,71.6,67.0,62.0,98,89,67,29.90,29.84,2,0,0,0.00
2013-8-28,83.5,69.8,61.9,72.5,66.4,61.3,98,90,64,29.99,29.85,9,1,0,0.73
2013-8-29,72.1,64.0,61.0,66.8,62.6,60.4,98,96,81,30.08,29.96,4,1,0,0.01
2013-8-30,85.1,69.6,61.2,69.2,65.0,60.6,98,87,56,30.02,29.81,3,0,0,0.00
2013-8-31,77.0,70.0,65.3,73.9,68.9,64.7,98,97,88,29.83,29.75,3,0,0,0.40
2013-9-1,81.1,71.6,65.7,73.8,69.7,65.1,98,94,75,29.88,29.79,4,0,0,0.00
2013-9-2,74.8,69.3,64.4,74.2,68.6,63.8,98,98,95,29.86,29.71,3,1,0,1.38
2013-9-3,70.2,64.4,59.0,68.1,63.0,58.4,98,96,77,29.81,29.70,3,0,0,0.01
2013-9-4,77.5,65.2,56.3,61.5,58.5,55.7,98,81,52,29.90,29.80,4,1,0,0.00
2013-9-5,66.6,57.6,44.4,60.0,50.7,41.8,98,80,46,30.16,29.85,4,1,0,0.02
2013-9-6,68.0,51.4,37.0,47.9,43.6,36.2,98,78,44,30.25,30.07,5,1,0,0.00
2013-9-7,67.5,57.2,45.0,56.3,51.8,44.5,98,84,55,30.07,29.84,3,0,0,0.03
2013-9-8,62.4,55.5,43.0,58.5,49.4,41.0,98,81,56,30.09,29.76,5,1,0,0.01
2013-9-9,67.8,51.7,35.6,52.9,45.2,34.8,98,81,48,30.23,30.10,5,1,0,0.00
2013-9-10,72.0,60.1,49.8,70.2,59.5,49.3,98,98,93,30.12,30.03,2,0,0,0.20
2013-9-11,90.0,75.7,66.4,77.9,70.8,65.8,98,87,58,30.08,29.93,5,1,0,0.01
2013-9-12,77.9,67.5,63.9,74.7,66.6,63.3,98,97,88,29.93,29.65,5,1,0,0.65
2013-9-13,64.6,60.7,53.4,64.0,60.1,52.8,98,98,98,29.79,29.60,4,1,0,0.40
2013-9-14,59.2,54.2,48.4,54.0,52.1,47.9,98,93,80,30.06,29.78,3,1,0,0.00
2013-9-15,68.4,53.2,40.8,55.0,48.8,40.3,98,87,53,30.16,30.02,5,1,0,0.00
2013-9-16,58.8,51.8,40.6,56.3,48.5,36.4,98,89,68,30.28,29.99,4,1,0,0.06
2013-9-17,65.1,47.1,34.7,46.6,41.0,34.2,98,81,48,30.44,30.28,4,1,0,0.00
2013-9-18,71.6,51.3,36.3,52.6,44.7,35.8,98,82,38,30.33,30.14,3,0,0,0.00
2013-9-19,78.4,55.7,40.3,56.5,48.7,39.8,98,81,37,30.16,30.04,2,0,0,0.00
2013-9-20,77.5,58.7,43.0,59.9,52.9,42.5,98,84,51,30.12,29.98,4,0,0,0.00
2013-9-21,71.4,60.5,48.9,64.5,57.0,48.4,98,89,58,29.99,29.65,7,2,0,0.00
2013-9-22,65.5,57.6,45.3,64.1,54.3,43.1,98,90,69,29.85,29.57,3,1,0,0.61
2013-9-23,55.8,46.8,40.6,43.8,41.6,39.0,97,83,62,30.00,29.85,5,2,0,0.00
2013-9-24,62.6,50.5,44.4,45.8,43.1,39.8,88,77,53,29.99,29.85,4,1,0,0.00
2013-9-25,64.2,52.9,43.5,53.5,48.4,43.0,98,85,68,30.00,29.89,3,1,0,0.00
2013-9-26,67.1,52.0,41.4,52.3,47.2,40.6,98,85,59,30.15,30.00,4,0,0,0.00
2013-9-27,67.3,53.3,44.6,54.6,50.1,44.1,98,90,63,30.29,30.15,3,0,0,0.00
2013-9-28,74.3,53.9,41.5,58.8,49.3,41.0,98,87,50,30.37,30.27,3,0,0,0.00
2013-9-29,70.9,53.7,40.8,57.7,48.8,40.3,98,86,55,30.27,30.10,3,0,0,0.00
2013-9-30,72.0,52.8,37.9,55.9,47.4,37.4,98,84,51,30.12,29.96,4,0,0,0.00
2013-10-1,75.0,55.3,40.3,58.8,50.5,39.8,98,86,56,30.00,29.86,3,0,0,0.00
2013-10-2,76.8,60.5,46.2,62.9,55.4,45.7,98,85,59,29.97,29.83,5,1,0,0.00
2013-10-3,74.7,59.4,46.4,54.5,51.5,45.9,98,78,43,30.10,29.96,4,1,0,0.00
2013-10-4,68.2,55.1,41.9,56.4,51.5,41.4,98,89,63,30.11,30.04,3,0,0,0.00
2013-10-5,64.6,58.6,55.2,55.9,53.8,49.4,98,85,65,30.11,30.04,2,0,0,0.00
2013-10-6,56.3,50.4,46.6,55.3,48.4,43.9,98,93,72,30.21,30.10,5,1,0,0.27
2013-10-7,66.6,55.4,49.3,66.0,54.7,48.7,98,98,92,30.12,29.69,7,2,0,0.31
2013-10-8,62.4,49.7,36.0,49.0,42.8,35.2,98,80,46,30.39,29.90,6,1,0,0.00
2013-10-9,62.1,44.5,31.3,45.9,38.2,30.8,98,82,49,30.49,30.36,5,1,0,0.00
2013-10-10,66.2,48.6,32.7,51.1,43.0,32.2,98,84,38,30.37,30.20,3,0,0,0.00
2013-10-11,71.6,54.0,42.8,53.1,46.2,41.2,98,79,36,30.19,30.12,4,0,0,0.00
2013-10-12,54.1,47.5,36.9,53.5,46.9,36.4,98,98,96,30.38,30.18,5,1,0,0.00
2013-10-13,59.0,49.1,40.5,50.0,45.9,40.0,98,90,70,30.43,30.34,6,1,0,0.00
2013-10-14,67.1,54.5,41.9,54.8,49.9,41.4,98,86,62,30.35,30.20,4,0,0,0.00
2013-10-15,61.9,57.2,52.7,56.5,54.3,49.5,98,90,78,30.26,30.16,5,1,0,0.00
2013-10-16,59.9,54.0,49.8,53.4,50.5,47.6,98,88,75,30.16,29.88,5,1,0,0.00
2013-10-17,72.0,56.9,48.9,57.5,50.3,46.9,98,81,49,29.87,29.68,5,1,0,0.07
2013-10-18,60.8,52.3,41.7,55.3,48.1,38.4,98,86,69,29.86,29.57,8,1,0,0.35
2013-10-19,64.2,49.6,35.8,47.7,42.2,35.0,98,78,52,29.91,29.67,5,1,0,0.00
2013-10-20,58.3,48.7,39.4,46.8,40.0,35.0,98,74,47,29.97,29.62,9,2,0,0.00
2013-10-21,61.7,47.4,30.4,45.0,39.6,29.4,98,77,53,30.08,29.93,5,1,0,0.00
2013-10-22,54.7,46.8,36.3,49.0,42.3,32.8,98,84,72,29.92,29.70,5,1,0,0.00
2013-10-23,52.5,41.2,30.7,36.5,33.2,29.6,97,75,49,29.76,29.56,3,1,0,0.00
2013-10-24,46.4,38.9,28.6,36.0,31.8,26.6,95,77,56,29.84,29.62,6,2,0,0.00
2013-10-25,45.5,35.4,26.8,35.1,28.8,23.8,98,79,52,30.07,29.84,6,1,0,0.00
2013-10-26,45.9,37.7,26.6,35.8,29.7,24.6,95,75,53,30.07,29.78,8,1,0,0.00
2013-10-27,49.5,40.5,30.0,37.8,32.3,26.0,87,73,55,30.00,29.71,7,1,0,0.00
2013-10-28,52.3,37.5,27.7,38.4,29.5,20.4,93,74,58,30.33,30.00,10,2,0,0.00
2013-10-29,45.3,30.2,18.7,27.0,19.5,14.4,92,67,35,30.42,30.32,5,1,0,0.00
2013-10-30,46.9,34.2,23.7,35.7,28.0,17.9,94,78,63,30.33,30.17,4,1,0,0.00
2013-10-31,56.5,41.7,27.9,55.9,40.7,26.4,98,96,92,30.21,29.70,4,1,0,0.31
2013-11-1,70.3,59.0,48.9,69.7,56.6,43.2,98,92,64,29.69,29.35,11,3,0,0.61
2013-11-2,61.9,47.9,35.1,48.4,42.5,33.8,98,83,57,29.78,29.58,5,1,0,0.00
2013-11-3,41.2,33.3,24.8,35.1,22.5,15.1,85,65,46,30.41,29.79,5,2,0,0.00
2013-11-4,38.8,28.0,19.4,20.0,16.4,13.9,85,63,41,30.66,30.41,5,1,0,0.00
2013-11-5,46.2,31.5,19.2,31.1,24.7,15.4,91,77,53,30.67,30.45,7,1,0,0.00
2013-11-6,56.3,44.1,30.0,45.9,39.3,28.0,98,84,67,30.46,29.95,6,2,0,0.00
2013-11-7,53.4,46.6,34.7,52.8,44.5,30.4,98,92,84,29.94,29.68,5,2,0,0.10
2013-11-8,40.8,33.4,27.7,33.7,27.1,23.4,88,78,67,30.01,29.79,7,2,0,0.01
2013-11-9,42.4,34.6,29.3,30.2,24.3,20.6,87,67,48,30.12,29.93,6,1,0,0.00
2013-11-10,44.6,36.6,31.6,40.7,35.0,30.5,98,94,85,29.92,29.66,5,1,0,0.08
2013-11-11,45.5,37.7,31.5,32.3,29.3,26.1,87,73,51,30.04,29.82,6,2,0,0.00
2013-11-12,39.6,28.0,22.1,35.3,20.9,14.5,93,75,62,30.14,29.81,7,2,0,0.00
2013-11-13,30.6,23.8,16.7,19.0,13.6,10.5,77,65,47,30.24,30.04,7,2,0,0.00
2013-11-14,45.0,33.1,23.5,29.4,23.4,17.6,89,68,53,30.05,29.98,6,1,0,0.00
2013-11-15,52.7,34.4,23.4,33.0,24.0,20.5,92,71,28,30.16,30.05,7,0,0,0.00
2013-11-16,57.7,38.1,27.1,35.2,28.3,24.8,92,72,32,30.29,30.15,4,1,0,0.00
2013-11-17,46.8,38.2,26.2,46.3,37.0,24.2,98,95,82,30.28,29.80,6,2,0,0.10
2013-11-18,57.6,49.2,40.8,52.6,43.8,31.5,98,83,55,29.79,29.45,7,3,0,0.40
2013-11-19,40.6,31.8,25.9,31.2,20.9,15.3,78,64,54,30.27,29.61,12,4,0,0.00
2013-11-20,36.5,26.1,17.8,19.5,15.9,14.2,87,66,44,30.60,30.27,4,1,0,0.00
2013-11-21,42.4,27.7,12.7,24.2,14.9,4.5,88,64,21,30.61,30.31,5,1,0,0.00
2013-11-22,39.6,34.9,30.6,39.1,33.3,24.1,98,94,75,30.32,29.73,3,0,0,0.11
2013-11-23,41.5,31.3,19.9,41.0,25.9,15.3,98,81,53,29.85,29.67,9,3,0,0.02
2013-11-24,20.7,15.6,10.6,15.5,4.4,-5.2,83,61,46,30.11,29.70,10,4,0,0.01
2013-11-25,27.1,18.2,7.0,14.4,3.1,-5.8,68,52,33,30.30,30.12,5,2,0,0.00
2013-11-26,35.1,28.5,23.7,29.4,24.0,13.3,96,83,62,30.23,30.01,5,1,0,0.00
2013-11-27,45.5,37.4,30.0,45.0,36.9,29.0,98,98,96,30.00,29.26,8,2,0,1.41
2013-11-28,30.0,21.7,11.3,28.5,13.4,5.0,95,71,51,30.35,29.40,11,2,0,0.00
2013-11-29,26.1,14.3,4.6,13.1,6.3,0.3,87,72,49,30.66,30.35,5,1,0,0.00
2013-11-30,26.2,15.4,0.3,15.2,6.8,-4.1,82,69,47,30.71,30.32,6,1,0,0.00
2013-12-1,39.6,31.3,24.4,32.3,27.2,15.7,94,85,69,30.31,29.98,3,0,0,0.00
2013-12-2,40.6,34.2,30.7,36.7,32.5,29.2,98,94,86,29.99,29.86,2,0,0,0.00
2013-12-3,40.5,32.3,28.0,36.4,30.9,27.5,98,95,81,29.92,29.84,3,0,0,0.00
2013-12-4,40.6,30.3,23.5,30.1,25.3,21.4,97,82,63,30.15,29.91,4,1,0,0.00
2013-12-5,38.5,32.9,23.2,38.0,31.5,21.5,98,94,80,30.16,29.86,6,1,0,0.03
2013-12-6,44.1,38.3,29.8,43.6,36.0,27.9,98,92,80,30.11,29.83,4,1,0,0.22
2013-12-7,36.5,28.4,23.2,28.8,22.1,15.7,97,78,58,30.38,30.05,8,1,0,0.00
2013-12-8,26.2,22.2,17.8,16.5,13.9,12.3,83,70,58,30.52,30.38,3,1,0,0.00
2013-12-9,27.7,24.7,20.3,27.0,21.2,10.9,98,87,62,30.42,29.81,6,2,0,0.00
2013-12-10,33.4,26.0,18.0,27.6,20.2,8.9,98,79,63,29.87,29.72,11,2,0,0.00
2013-12-11,27.5,20.8,15.8,16.9,12.3,8.2,87,70,52,30.07,29.87,5,2,0,0.00
2013-12-12,20.3,11.1,3.9,12.6,2.3,-3.3,85,68,44,30.19,29.92,7,1,0,0.00
2013-12-13,21.7,10.8,-2.9,14.5,4.4,-8.8,84,75,68,30.30,29.83,5,1,0,0.00
2013-12-14,10.4,3.1,-5.8,5.0,-5.3,-11.4,85,68,49,30.49,30.11,7,2,0,0.00
2013-12-15,25.2,17.7,8.6,21.9,14.8,5.0,92,88,83,30.08,29.39,9,3,0,0.00
2013-12-16,22.1,14.3,-2.9,16.3,6.8,-9.9,91,72,56,30.11,29.61,8,2,0,0.00
2013-12-17,11.3,0.8,-16.2,6.1,-5.4,-22.5,84,75,59,30.17,29.93,4,1,0,0.00
2013-12-18,31.5,17.6,6.4,21.1,12.8,2.6,93,82,63,29.95,29.84,4,0,0,0.00
2013-12-19,37.8,28.4,21.2,29.2,23.3,18.9,92,82,60,30.03,29.87,5,1,0,0.00
2013-12-20,41.5,34.3,30.6,34.8,31.7,27.8,98,90,74,30.04,29.86,2,0,0,0.39
2013-12-21,48.6,38.8,34.2,47.0,38.2,33.7,98,98,91,29.88,29.80,2,0,0,0.18
2013-12-22,40.1,35.3,32.2,39.6,34.8,31.7,98,98,98,29.96,29.69,6,2,0,0.07
2013-12-23,35.8,32.8,30.6,35.3,32.3,29.9,98,98,97,30.08,29.93,3,1,0,0.30
2013-12-24,30.2,23.5,12.7,28.7,17.3,8.3,95,78,60,30.15,30.00,6,2,0,0.00
2013-12-25,16.7,9.3,1.2,7.0,0.4,-5.4,81,67,53,30.43,30.16,5,1,0,0.00
2013-12-26,26.4,19.1,12.9,22.9,14.7,3.7,94,83,65,30.38,30.03,6,1,0,0.00
2013-12-27,32.0,23.2,14.7,21.6,18.4,12.6,95,82,61,30.14,30.07,7,1,0,0.00
2013-12-28,37.6,29.5,19.0,32.1,25.5,16.6,96,85,73,30.07,29.89,4,1,0,0.07
2013-12-29,38.3,31.4,25.7,33.3,29.4,24.7,98,92,81,29.93,29.49,3,0,0,0.01
2013-12-30,30.2,12.3,-0.4,22.3,6.7,-5.3,81,78,72,30.09,29.85,2,0,0,0.07
2013-12-31,15.6,5.4,-6.7,10.7,-1.0,-12.0,90,75,58,30.07,29.89,3,0,0,0.00
2014-1-1,20.8,11.7,5.9,8.8,4.3,1.0,82,72,56,30.29,30.00,6,2,0,0.00
2014-1-2,9.0,2.8,-1.5,2.1,-2.6,-6.7,80,78,73,30.28,29.83,3,0,0,0.00